Powrót do katalogu

CZ-6A DEB

AktywnySSO
NORAD 54338·DEBRIS·🇨🇳 China

Wystrzelony Nov 11, 2022 z Taiyuan Satellite Launch Center

Loading…

Następne Przeloty (najbliższe 24 godziny)

TLE

ŚwieżeSource: Space-Track

Epoka: Sep 14, 2026, 06:16 UTC

1 54338U 22151CH  26257.26145148  .00000739  00000-0  40338-3 0  9997
2 54338  98.8396 263.0419 0040831  73.1806 287.3840 14.14683550197381

Śledź CZ-6A DEB w czasie rzeczywistym z AllMySat

Download on the App Store